Zurück zum Katalog

INTERBALL AURORA

AktivWissenschaftHEO
NORAD 24293·PAYLOAD·🇷🇺 Russia

Gestartet Aug 29, 1996 von Plesetsk Cosmodrome

Loading…

Nächste Überflüge (nächste 24 Stunden)

TLE

AktuellSource: Space-Track

Epoche: Sep 11, 2026, 14:48 UTC

1 24293U 96050C   26254.61691380  .00000049  00000-0  00000-0 0  9996
2 24293  62.6708 134.6575 5594463 271.4191  28.6837  4.14736879454908

Verfolge INTERBALL AURORA in Echtzeit mit AllMySat

Download on the App Store